TimeEST,TemperatureF,Dew PointF,Humidity,Sea Level PressureIn,VisibilityMPH,Wind Direction,Wind SpeedMPH,Gust SpeedMPH,PrecipitationIn,Events,Conditions,WindDirDegrees,DateUTC
12:10 AM,59.0,53.6,82,30.05,10.0,South,13.8,-,0.00,,Scattered Clouds,190,2012-12-04 05:10:00
12:30 AM,59.0,53.6,82,30.04,10.0,South,13.8,20.7,0.00,,Mostly Cloudy,190,2012-12-04 05:30:00
12:50 AM,59.0,51.8,77,30.04,10.0,South,13.8,20.7,0.00,,Scattered Clouds,190,2012-12-04 05:50:00
1:10 AM,57.2,51.8,82,30.04,10.0,South,13.8,-,0.00,,Scattered Clouds,180,2012-12-04 06:10:00
1:30 AM,57.2,51.8,82,30.04,10.0,South,13.8,-,0.00,,Mostly Cloudy,180,2012-12-04 06:30:00
1:50 AM,57.2,51.8,82,30.04,10.0,South,11.5,-,0.00,,Mostly Cloudy,180,2012-12-04 06:50:00
2:10 AM,57.2,51.8,82,30.04,10.0,South,11.5,-,0.00,,Mostly Cloudy,180,2012-12-04 07:10:00
2:30 AM,57.2,51.8,82,30.04,10.0,South,11.5,-,0.00,,Partly Cloudy,180,2012-12-04 07:30:00
2:50 AM,55.4,51.8,88,30.04,10.0,South,11.5,-,0.00,,Clear,170,2012-12-04 07:50:00
3:10 AM,55.4,51.8,88,30.03,10.0,South,10.4,-,0.00,,Clear,170,2012-12-04 08:10:00
3:50 AM,55.4,51.8,88,30.02,10.0,South,12.7,-,0.00,,Mostly Cloudy,180,2012-12-04 08:50:00
4:10 AM,57.2,51.8,82,30.02,10.0,South,11.5,-,0.00,,Mostly Cloudy,180,2012-12-04 09:10:00
4:30 AM,57.2,51.8,82,30.01,10.0,South,13.8,-,0.00,,Overcast,180,2012-12-04 09:30:00
4:50 AM,57.2,51.8,82,30.01,10.0,South,13.8,19.6,0.00,,Overcast,180,2012-12-04 09:50:00
5:10 AM,57.2,51.8,82,30.01,10.0,South,12.7,-,0.00,,Overcast,180,2012-12-04 10:10:00
5:30 AM,57.2,51.8,82,30.01,10.0,South,12.7,21.9,0.00,,Mostly Cloudy,190,2012-12-04 10:30:00
5:45 AM,57.2,51.8,82,30.01,10.0,South,16.1,20.7,0.00,,Overcast,190,2012-12-04 10:45:00
6:10 AM,59.0,51.8,77,30.01,10.0,South,16.1,-,0.00,,Overcast,190,2012-12-04 11:10:00
6:30 AM,59.0,51.8,77,30.01,10.0,South,17.3,-,0.00,,Overcast,190,2012-12-04 11:30:00
6:50 AM,59.0,51.8,77,30.02,10.0,South,13.8,19.6,0.00,,Overcast,190,2012-12-04 11:50:00
7:10 AM,57.2,51.8,82,30.02,10.0,South,13.8,-,0.00,,Overcast,190,2012-12-04 12:10:00
7:30 AM,57.2,51.8,82,30.02,10.0,South,12.7,-,0.00,,Mostly Cloudy,180,2012-12-04 12:30:00
7:50 AM,57.2,51.8,82,30.02,10.0,South,16.1,19.6,0.00,,Mostly Cloudy,190,2012-12-04 12:50:00
8:10 AM,57.2,51.8,82,30.02,10.0,South,13.8,18.4,0.00,,Scattered Clouds,190,2012-12-04 13:10:00
8:30 AM,57.2,51.8,82,30.02,10.0,South,11.5,19.6,0.00,,Scattered Clouds,190,2012-12-04 13:30:00
8:50 AM,57.2,51.8,82,30.02,10.0,South,12.7,17.3,0.00,,Overcast,190,2012-12-04 13:50:00
9:10 AM,59.0,51.8,77,30.02,10.0,SSW,12.7,-,0.00,,Overcast,200,2012-12-04 14:10:00
9:30 AM,59.0,51.8,77,30.02,10.0,SSW,13.8,-,0.00,,Overcast,200,2012-12-04 14:30:00
9:50 AM,59.0,53.6,82,30.02,10.0,SSW,13.8,20.7,0.00,,Mostly Cloudy,200,2012-12-04 14:50:00
10:10 AM,60.8,53.6,77,30.02,10.0,SSW,15.0,-,0.00,,Mostly Cloudy,200,2012-12-04 15:10:00
10:30 AM,60.8,53.6,77,30.02,10.0,SSW,17.3,23.0,0.00,,Mostly Cloudy,200,2012-12-04 15:30:00
10:50 AM,60.8,53.6,77,30.01,10.0,SSW,17.3,26.5,0.00,,Overcast,200,2012-12-04 15:50:00
11:10 AM,60.8,53.6,77,30.01,10.0,SSW,13.8,-,0.00,,Overcast,200,2012-12-04 16:10:00
11:30 AM,60.8,55.4,82,30.00,10.0,SSW,19.6,-,0.00,,Overcast,210,2012-12-04 16:30:00
11:50 AM,60.8,55.4,82,29.99,10.0,SSW,19.6,23.0,0.00,,Overcast,210,2012-12-04 16:50:00
12:10 PM,60.8,55.4,82,29.98,10.0,SSW,15.0,-,0.00,,Overcast,210,2012-12-04 17:10:00
12:30 PM,60.8,55.4,82,29.97,10.0,SSW,17.3,20.7,0.00,,Overcast,200,2012-12-04 17:30:00
1:10 PM,60.8,57.2,88,29.97,3.0,SW,16.1,25.3,0.02,,Overcast,220,2012-12-04 18:10:00
1:30 PM,55.4,55.4,100,29.98,1.2,NW,17.3,20.7,0.07,,Overcast,310,2012-12-04 18:30:00
1:50 PM,51.8,51.8,100,29.98,2.0,NW,12.7,19.6,0.10,,Overcast,320,2012-12-04 18:50:00
2:10 PM,50.0,50.0,100,29.99,1.2,NW,9.2,-,0.03,,Overcast,320,2012-12-04 19:10:00
2:30 PM,48.2,48.2,100,30.00,2.5,NNW,12.7,17.3,0.06,,Overcast,330,2012-12-04 19:30:00
2:50 PM,48.2,48.2,100,30.02,1.8,NW,11.5,20.7,0.08,,Overcast,320,2012-12-04 19:50:00
3:10 PM,46.4,46.4,100,30.00,1.8,NNW,10.4,-,0.02,,Overcast,330,2012-12-04 20:10:00
3:30 PM,46.4,46.4,100,30.02,2.0,NW,11.5,20.7,0.04,,Overcast,320,2012-12-04 20:30:00
3:50 PM,42.8,42.8,100,30.03,3.0,NNW,13.8,20.7,0.07,,Overcast,330,2012-12-04 20:50:00
4:10 PM,42.8,42.8,100,30.05,3.0,NW,10.4,17.3,0.01,,Overcast,320,2012-12-04 21:10:00
4:30 PM,42.8,42.8,100,30.06,3.0,NW,6.9,-,0.03,,Overcast,310,2012-12-04 21:30:00
4:50 PM,42.8,42.8,100,30.06,5.0,NW,6.9,-,0.05,,Overcast,310,2012-12-04 21:50:00
5:10 PM,42.8,42.8,100,30.05,6.0,NNW,10.4,-,0.01,,Overcast,340,2012-12-04 22:10:00
5:30 PM,42.8,42.8,100,30.07,8.0,NW,6.9,-,0.01,,Overcast,320,2012-12-04 22:30:00
5:50 PM,42.8,42.8,100,30.09,10.0,WNW,3.5,-,0.02,,Overcast,300,2012-12-04 22:50:00
6:10 PM,42.8,42.8,100,30.09,10.0,WNW,4.6,-,0.00,,Overcast,300,2012-12-04 23:10:00
6:30 PM,42.8,42.8,100,30.10,10.0,NW,4.6,-,0.00,,Overcast,310,2012-12-04 23:30:00
6:50 PM,42.8,42.8,100,30.10,10.0,NW,3.5,-,0.00,,Overcast,310,2012-12-04 23:50:00
7:10 PM,42.8,42.8,100,30.11,10.0,Calm,Calm,-,0.00,,Overcast,0,2012-12-05 00:10:00
7:30 PM,42.8,42.8,100,30.11,10.0,West,3.5,-,0.00,,Overcast,270,2012-12-05 00:30:00
7:50 PM,42.8,42.8,100,30.12,10.0,West,3.5,-,0.00,,Scattered Clouds,270,2012-12-05 00:50:00
8:10 PM,41.0,41.0,100,30.12,10.0,West,4.6,-,0.00,,Clear,270,2012-12-05 01:10:00
8:30 PM,39.2,39.2,100,30.13,10.0,West,3.5,-,0.00,,Clear,260,2012-12-05 01:30:00
8:50 PM,41.0,41.0,100,30.13,10.0,WSW,4.6,-,0.00,,Clear,250,2012-12-05 01:50:00
9:10 PM,41.0,41.0,100,30.13,10.0,WSW,3.5,-,0.00,,Clear,250,2012-12-05 02:10:00
9:30 PM,41.0,41.0,100,30.13,10.0,WSW,3.5,-,0.00,,Clear,240,2012-12-05 02:30:00
9:50 PM,39.2,39.2,100,30.13,9.0,West,3.5,-,0.00,,Clear,270,2012-12-05 02:50:00
10:10 PM,39.2,39.2,100,30.14,10.0,Calm,Calm,-,0.00,,Clear,0,2012-12-05 03:10:00
10:30 PM,39.2,39.2,100,30.14,10.0,SW,3.5,-,0.00,,Clear,230,2012-12-05 03:30:00
10:50 PM,39.2,39.2,100,30.15,10.0,SW,5.8,-,0.00,,Clear,230,2012-12-05 03:50:00
11:10 PM,39.2,39.2,100,30.15,10.0,SSW,3.5,-,0.00,,Clear,200,2012-12-05 04:10:00
11:30 PM,39.2,39.2,100,30.15,10.0,SSW,3.5,-,0.00,,Clear,200,2012-12-05 04:30:00
11:50 PM,37.4,37.4,100,30.15,10.0,South,4.6,-,0.00,,Clear,190,2012-12-05 04:50:00